{"data":{"norad_id":48996,"epoch":"2026-05-24T22:26:05.182080Z","epoch_age_seconds":87581,"freshness":"FRESH","line1":"1 48996U 21060AF  26144.93478220  .00000008  00000+0 -13915-4 0  9998","line2":"2 48996  87.9110 233.3904 0002081 106.8185 253.3175 13.16595545236638","mean_motion":13.16595545,"eccentricity":0.0002081,"inclination_deg":87.911,"raan_deg":233.3904,"arg_perigee_deg":106.8185,"mean_anomaly_deg":253.3175,"bstar":-1.3915e-5,"rev_number":23663,"period_min":109.37299654922,"perigee_km":1196.1751837488,"apogee_km":1199.3282686367,"semimajor_km":7575.8887261927,"source":"CELESTRAK","updated_at":"2026-05-25T13:38:22.478715Z"}}